Miscellaneous Local Product
Issued by NWS North Platte, NE

Home | Current Version | Previous Version | Text Only | Print | Product List | Glossary On
Versions: 1 2 3 4 5 6 7 8 9 10 11 12 13 14 15 16 17 18 19 20 21 22 23 24 25 26 27 28 29 30 31 32 33 34 35 36 37 38 39 40 41 42 43 44 45 46 47 48 49 50
902
AXUS43 KLBF 271910
MISLBF


WESTERN AND NORTH CENTRAL NEBRASKA HOURLY WEATHER ROUNDUP
NATIONAL WEATHER SERVICE NORTH PLATTE NE
200 PM CDT THU APR 27 2017

NOTE: "FAIR" INDICATES FEW OR NO CLOUDS BELOW 12,000 FEET WITH NO
SIGNIFICANT WEATHER AND/OR OBSTRUCTIONS TO VISIBILITY.

NOTE: STATIONS NOT REPORTING VARIABLES SUCH AS SKY/WEATHER OR
PRESSURE ARE PROVIDED BY RAWS AND APRS NETWORKS AND ARE NOT UNDER
NATIONAL WEATHER SERVICE QUALITY CONTROL.

...OBSERVATIONS IN AND NEAR THE EASTERN PANHANDLE OF NEBRASKA...

CITY           SKY/WX    TMP DP  RH WIND       PRES   REMARKS
PINE RIDGE     CLOUDY    50  34  54 E12       29.60F
CHADRON        CLOUDY    50  35  56 E10       29.57F
ALLIANCE       CLOUDY    49  38  65 SE14      29.55F
SIDNEY         CLOUDY    51  42  71 NE15      29.54F
CRESCENT LAKE    N/A     50  37  59 SE9G16      N/A
$$

...OBSERVATIONS IN NORTHERN NEBRASKA AND FAR SOUTHERN SOUTH DAKOTA...

CITY           SKY/WX    TMP DP  RH WIND       PRES   REMARKS
WINNER         FAIR      48  32  53 N6        29.69F
VALENTINE      SUNNY     53  29  39 E12       29.65F
THEDFORD       LGT RAIN  52  33  49 S13       29.64S
AINSWORTH      SUNNY     49  33  53 E3        29.65F
O`NEILL        MOSUNNY   47  33  56 N5        29.69F
ORD            CLOUDY    51  32  48 VRB5      29.67F
BROKEN BOW       N/A     51  34  52 SE9       29.65F
VALENTINE NWR    N/A     51  31  45 E7          N/A
HALSEY           N/A     52  30  43 SE6G13      N/A
BUTTE            N/A     44  31  61 CALM        N/A
CHAMBERS         N/A     50  33  51 CALM        N/A
EWING            N/A     46  36  69 NW3         N/A
$$

...OBSERVATIONS IN SOUTHWEST NEBRASKA AND FAR NORTHEAST COLORADO...

CITY           SKY/WX    TMP DP  RH WIND       PRES   REMARKS
HOLYOKE        FAIR      59  37  44 SE13G21   29.53F
IMPERIAL       MOSUNNY   53  36  52 E18G25    29.55F
OGALLALA       CLOUDY    53  35  51 E14       29.57F
NORTH PLATTE   PTSUNNY   53  37  54 SE14      29.62F
MCCOOK         CLOUDY    51  35  54 E15       29.59F
LEXINGTON      CLOUDY    52  34  51 SE14      29.66F
STAPLETON        N/A     47  35  63 E3          N/A
GOTHENBURG       N/A     50  33  51 E12         N/A
CALLAWAY         N/A     47  37  69 E10         N/A
$$

...OBSERVATIONS IN CENTRAL LINCOLN COUNTY AREA...

CITY           SKY/WX    TMP DP  RH WIND       PRES   REMARKS
N.P. AIRPORT   PTSUNNY   53  37  54 SE14      29.62F
N.P. DOWNTOWN    N/A     50  37  59 E7G18       N/A
N.P. SOUTHEAST   N/A     51  37  58 E6G13       N/A
N.P. HILLCREST   N/A     49  38  65 SE15G23     N/A
$$

...SOME OBSERVATIONS FROM AROUND THE REGION...

CITY           SKY/WX    TMP DP  RH WIND       PRES   REMARKS
DENVER         LGT RAIN  46  38  73 NW12      29.53S
LIMON          CLOUDY    59  32  36 VRB3      29.47F
ASPEN          FLURRIES  34  32  92 CALM      29.64R
LARAMIE        CLOUDY    38  27  64 W13       29.55F WCI  30
CASPER         CLOUDY    41  34  76 N13       29.53R
CHEYENNE       CLOUDY    43  36  76 S8        29.55R
SCOTTSBLUFF    LGT RAIN  46  40  79 S5        29.56S
GRAND ISLAND   CLOUDY    53  30  41 W5        29.70F
OMAHA          MOSUNNY   52  34  50 CALM      29.72F
SIOUX FALLS    PTSUNNY   43  32  65 NW14      29.68F
PIERRE         CLOUDY    42  29  59 E3        29.71F
RAPID CITY     PTSUNNY   46  32  58 E10       29.63F
BISMARCK       SUNNY     50  25  37 N10G18    29.72F
KANSAS CITY    PTSUNNY   59  38  45 SW7       29.72F
HILL CITY      CLOUDY    54  38  54 SE15G26   29.61F
WICHITA        CLOUDY    62  43  49 S17G23    29.68F
DODGE CITY     CLOUDY    61  36  39 SE23      29.56F
OKLAHOMA CITY  PTSUNNY   64  44  48 S20G25    29.68F
DALLAS         MOSUNNY   72  46  39 S15       29.73F
AMARILLO       MOSUNNY   78  32  18 W22G29    29.52F
$$




USA.gov is the U.S. government's official web portal to all federal, state and local government web resources and services.